Elmira, NY

2:54 AM EST on December 09, 2019 (GMT -0500)
Elmira-Corning Regional

Weather History for KELM - October, 2019

Change the Weather History Date:

Monday, October 28, 2019

  Actual Average Record
Temperature  
Mean Temperature 56 °F -  
Max Temperature 69 °F 58 °F 79 °F (2014)
Min Temperature 43 °F 35 °F 17 °F (1976)
Degree Days  
Heating Degree Days 9    
Growing Degree Days 6 (Base 50)    
Moisture  
Dew Point 46 °F    
Average Humidity 77    
Maximum Humidity 97    
Minimum Humidity 47    
Precipitation  
Precipitation 0.00 in - - ()
Sea Level Pressure  
Sea Level Pressure 30.11 in    
Wind  
Wind Speed 3 mph (East)    
Max Wind Speed 8 mph    
Max Gust Speed -    
Visibility 10 miles    
Events      
Averages and records for this station are not official NWS values.
T = Trace of Precipitation, MM = Missing Value Source: NWS Daily Summary

Daily Weather History Graph

Daily Weather History Graph

Search for Another Location

Airport or City:

Astronomy

Oct. 28, 2019 Rise Set
Actual Time 7:35 AM EDT 6:06 PM EDT
Civil Twilight 7:06 AM EDT 6:35 PM EDT
Nautical Twilight 6:33 AM EDT 7:08 PM EDT
Astronomical Twilight 6:01 AM EDT 7:40 PM EDT
Moon 7:53 AM EDT (10/28) 6:50 PM EDT (10/28)
Length of Visible Light 11h 29m
Length of Day
10h 31m
New Moon, 0% of the Moon is Illuminated
Oct 28
New Moon
Nov 4
First Quarter
Nov 12
Full
Nov 19
Last Quarter
Nov 26
New

Hourly Weather History & Observations

Time (EDT) Temp. Windchill Dew Point Humidity Pressure Visibility Wind Dir Wind Speed Gust Speed Precip Events Conditions
12:53 AM 55.9 °F - 46.0 °F 69% 30.00 in 10.0 mi Variable 5.8 mph - N/A   Overcast
1:53 AM 55.9 °F - 46.0 °F 69% 30.01 in 10.0 mi WNW 4.6 mph - N/A   Overcast
2:53 AM 53.1 °F - 46.0 °F 77% 30.03 in 10.0 mi West 6.9 mph - N/A   Scattered Clouds
3:53 AM 50.0 °F - 45.0 °F 83% 30.05 in 10.0 mi Calm Calm - N/A   Scattered Clouds
4:08 AM 46.9 °F - 44.1 °F 90% 30.06 in 10.0 mi Calm Calm - N/A   Mostly Cloudy
4:20 AM 44.1 °F 42.5 °F 42.1 °F 93% 30.06 in 10.0 mi NNE 3.5 mph - N/A   Mostly Cloudy
4:53 AM 45.0 °F - 42.1 °F 90% 30.07 in 10.0 mi Calm Calm - N/A   Mostly Cloudy
5:19 AM 46.0 °F - 44.1 °F 93% 30.08 in 10.0 mi Calm Calm - N/A   Overcast
5:53 AM 46.0 °F - 44.1 °F 93% 30.11 in 10.0 mi Calm Calm - N/A   Mostly Cloudy
6:16 AM 44.1 °F - 43.0 °F 96% 30.11 in 10.0 mi Calm Calm - N/A   Overcast
6:53 AM 48.0 °F - 46.0 °F 93% 30.13 in 10.0 mi Calm Calm - N/A   Overcast
7:53 AM 48.9 °F - 46.9 °F 93% 30.15 in 10.0 mi Calm Calm - N/A   Overcast
8:45 AM 50.0 °F - 46.9 °F 89% 30.16 in 10.0 mi Calm Calm - N/A   Scattered Clouds
8:53 AM 51.1 °F - 48.0 °F 89% 30.16 in 10.0 mi Calm Calm - N/A   Partly Cloudy
9:53 AM 54.0 °F - 48.0 °F 80% 30.17 in 10.0 mi Calm Calm - N/A   Partly Cloudy
10:53 AM 59.0 °F - 48.0 °F 67% 30.16 in 10.0 mi ENE 3.5 mph - N/A   Clear
11:53 AM 63.0 °F - 48.9 °F 60% 30.15 in 10.0 mi Variable 3.5 mph - N/A   Clear
12:53 PM 64.9 °F - 48.9 °F 56% 30.14 in 10.0 mi ENE 4.6 mph - N/A   Clear
1:53 PM 66.9 °F - 48.0 °F 51% 30.12 in 10.0 mi Calm Calm - N/A   Clear
2:53 PM 69.1 °F - 48.0 °F 47% 30.11 in 10.0 mi Calm Calm - N/A   Clear
3:53 PM 69.1 °F - 48.0 °F 47% 30.11 in 10.0 mi East 8.1 mph - N/A   Clear
4:53 PM 68.0 °F - 46.9 °F 47% 30.11 in 10.0 mi ESE 5.8 mph - N/A   Clear
5:53 PM 64.0 °F - 46.9 °F 54% 30.12 in 10.0 mi SE 5.8 mph - N/A   Clear
6:53 PM 60.1 °F - 46.9 °F 62% 30.13 in 10.0 mi SSE 5.8 mph - N/A   Clear
7:53 PM 52.0 °F - 46.0 °F 80% 30.14 in 10.0 mi Calm Calm - N/A   Clear
8:53 PM 48.0 °F - 45.0 °F 89% 30.15 in 10.0 mi Calm Calm - N/A   Clear
9:53 PM 46.0 °F - 43.0 °F 89% 30.17 in 10.0 mi Calm Calm - N/A   Clear
10:53 PM 43.0 °F - 42.1 °F 97% 30.17 in 10.0 mi Calm Calm - N/A   Clear
11:53 PM 43.0 °F - 42.1 °F 97% 30.17 in 10.0 mi Calm Calm - N/A   Clear